FW4219 Weather Reports


Display with metric or nautical units.
time (UTC)temp
F
wind
direction
speed
MPH
gust
MPH
rain 1hr
in
rain 24hr
in
rain mn
in
humidity
%
barometer
mb
20260504000138 69 247 3.0 6.0 0.00 0.00 0.00 100 1008.5
20260503235137 69 218 3.0 5.0 0.00 0.00 0.00 100 1008.5
20260503235040 69 249 2.0 7.0 0.00 0.00 0.00 100 1008.2
20260503234138 69 215 5.0 12.0 0.00 0.00 0.00 100 1008.2
20260503232139 68 223 4.0 6.0 0.00 0.00 0.00 100 1008.5
20260503230240 68 215 8.0 16.0 0.00 0.00 0.00 100 1008.5
20260503225241 68 209 7.0 12.0 0.00 0.00 0.00 100 1008.5
20260503224337 68 200 6.0 14.0 0.00 0.00 0.00 100 1008.8
20260503223339 67 199 6.0 10.0 0.00 0.00 0.00 100 1008.8
20260503222338 67 197 9.0 15.0 0.00 0.00 0.00 100 1009.2
20260503221339 66 208 6.0 14.0 0.00 0.00 0.00 100 1009.2
20260503220339 66 227 3.0 6.0 0.00 0.00 0.00 100 1009.5
20260503215437 66 214 9.0 21.0 0.00 0.00 0.00 100 1009.6
20260503214439 66 210 8.0 18.0 0.00 0.00 0.00 100 1009.2
20260503212539 65 216 8.0 14.0 0.00 0.00 0.00 100 1009.6
20260503212437 65 191 11.0 17.0 0.00 0.00 0.00 100 1009.6
20260503205441 64 206 8.0 13.0 0.00 0.00 0.00 100 1010.3
20260503204538 64 227 9.0 16.0 0.00 0.00 0.00 100 1010.6
20260503203538 65 211 10.0 18.0 0.00 0.00 0.00 100 1010.9
20260503202540 65 207 6.0 15.0 0.00 0.00 0.00 100 1011.0
20260503201539 65 221 13.0 21.0 0.00 0.00 0.00 100 1011.0
20260503200538 65 204 10.0 16.0 0.00 0.00 0.00 100 1011.0
20260503195637 64 216 10.0 19.0 0.00 0.00 0.00 100 1011.3
20260503194639 63 229 6.0 12.0 0.00 0.00 0.00 100 1011.3
20260503193640 62 225 5.0 10.0 0.00 0.00 0.00 100 1011.6
20260503192737 61 216 9.0 17.0 0.00 0.00 0.00 100 1011.6
20260503191736 60 174 9.0 15.0 0.00 0.00 0.00 100 1011.6
20260503185739 58 172 5.0 10.0 0.00 0.00 0.00 100 1012.0
20260503184838 57 187 6.0 14.0 0.00 0.00 0.00 100 1012.6
20260503183836 56 167 8.0 15.0 0.00 0.00 0.00 100 1013.0
20260503182838 56 222 4.0 10.0 0.00 0.00 0.00 100 1013.0
20260503181938 55 210 3.0 8.0 0.00 0.00 0.00 100 1013.0
20260503180939 55 205 6.0 15.0 0.00 0.00 0.00 100 1013.7
20260503175939 55 207 4.0 8.0 0.00 0.00 0.00 100 1014.4
20260503174939 55 215 5.0 13.0 0.00 0.00 0.00 100 1014.4
20260503174037 54 210 6.0 11.0 0.00 0.00 0.00 100 1014.7
20260503173038 54 208 5.0 13.0 0.00 0.00 0.00 100 1015.1
20260503172037 53 199 5.0 8.0 0.00 0.00 0.00 100 1015.4
20260503171039 52 215 7.0 16.0 0.00 0.00 0.00 100 1015.4
20260503131236 51 262 4.0 6.0 0.00 0.00 0.00 100 1016.8
20260503110338 47 223 6.0 9.0 0.00 0.00 0.00 100 1016.4
20260503080836 47 216 3.0 5.0 0.00 0.00 0.00 100 1017.2
20260503080738 47 221 2.0 5.0 0.00 0.00 0.00 100 1017.2
20260503072939 47 225 3.0 6.0 0.00 0.00 0.00 100 1017.4
20260503072037 46 228 2.0 4.0 0.00 0.00 0.00 100 1017.2
20260503071052 46 225 1.0 4.0 0.00 0.00 0.00 100 1017.5
20260503060335 47 219 2.0 5.0 0.00 0.00 0.00 100 1018.2
20260503054337 47 221 4.0 8.0 0.00 0.00 0.00 100 1018.2
20260503053339 47 225 2.0 5.0 0.00 0.00 0.00 100 1018.2
20260503052435 47 205 3.0 6.0 0.00 0.00 0.00 100 1018.2
20260503051435 47 218 3.0 6.0 0.00 0.00 0.00 100 1018.5
20260503045441 47 222 3.0 6.0 0.00 0.00 0.00 100 1018.5
20260503044442 48 215 2.0 4.0 0.00 0.00 0.00 100 1018.5
20260503043441 48 225 3.0 5.0 0.00 0.00 0.00 100 1018.5
20260503042442 48 213 3.0 5.0 0.00 0.00 0.00 100 1018.5
20260503041442 48 223 3.0 4.0 0.00 0.00 0.00 100 1018.9
20260503035439 48 217 2.0 4.0 0.00 0.00 0.00 100 1018.6
20260503033441 49 225 3.0 5.0 0.00 0.00 0.00 100 1018.9
20260503032442 49 221 2.0 4.0 0.00 0.00 0.00 100 1018.9
20260503031442 49 215 4.0 8.0 0.00 0.00 0.00 100 1019.0
20260503030442 49 204 2.0 4.0 0.00 0.00 0.00 100 1018.9
20260503025441 50 225 1.0 3.0 0.00 0.00 0.00 100 1019.1
20260503023441 49 208 2.0 4.0 0.00 0.00 0.00 100 1019.1
20260503021539 50 225 1.0 3.0 0.00 0.00 0.00 100 1019.0
20260503020540 50 225 0.0 2.0 0.00 0.00 0.00 100 1019.0
20260503014639 50 224 1.0 4.0 0.00 0.00 0.00 100 1018.9
20260503013639 51 225 1.0 2.0 0.00 0.00 0.00 100 1018.9
20260503012641 51 225 1.0 2.0 0.00 0.00 0.00 100 1018.9
20260503011639 52 225 1.0 2.0 0.00 0.00 0.00 100 1018.9
20260503011542 52 225 1.0 2.0 0.00 0.00 0.00 100 1018.9
20260503010541 53 225 0.0 0.0 0.00 0.00 0.00 100 1018.9
20260503004540 54 225 0.0 2.0 0.00 0.00 0.00 100 1018.9
20260503003539 55 255 3.0 7.0 0.00 0.00 0.00 100 1018.9
20260503002540 56 315 0.0 0.0 0.00 0.00 0.00 100 1018.9
20260503001639 56 237 1.0 3.0 0.00 0.00 0.00 100 1018.9
20260503000643 57 201 0.0 1.0 0.00 0.00 0.00 100 1018.9